2016-07-05 00:03:31 r, 20.89m,0000000000Hz,0001230962c,0000002.671s, 029.0C,00002191
2016-07-05 00:13:31 r, 20.92m,0000000000Hz,0001264517c,0000002.744s, 028.6C,00002191
2016-07-05 00:23:32 r, 20.79m,0000000000Hz,0001129116c,0000002.450s, 028.6C,00002191
2016-07-05 00:33:31 r, 20.90m,0000000000Hz,0001241544c,0000002.694s, 028.6C,00002191
2016-07-05 00:43:31 r, 21.12m,0000000000Hz,0001505106c,0000003.266s, 028.6C,00002191
2016-07-05 00:53:31 r, 21.07m,0000000000Hz,0001438152c,0000003.121s, 028.6C,00002191
2016-07-05 01:03:31 r, 19.98m,0000000001Hz,0000540616c,0000001.173s, 028.3C,00002191
2016-07-05 01:13:33 r, 20.91m,0000000001Hz,0001246107c,0000002.704s, 028.6C,00002191
2016-07-05 01:23:32 r, 20.90m,0000000000Hz,0001239544c,0000002.690s, 028.6C,00002191
2016-07-05 01:33:32 r, 20.89m,0000000001Hz,0001235060c,0000002.680s, 028.6C,00002191
2016-07-05 01:43:32 r, 20.90m,0000000000Hz,0001244131c,0000002.700s, 028.6C,00002191
2016-07-05 01:53:31 r, 20.91m,0000000000Hz,0001260550c,0000002.736s, 028.6C,00002191
2016-07-05 02:03:31 r, 20.93m,0000000000Hz,0001271820c,0000002.760s, 028.3C,00002191
2016-07-05 02:13:32 r, 20.92m,0000000000Hz,0001263792c,0000002.743s, 028.3C,00002191
2016-07-05 02:23:31 r, 20.91m,0000000001Hz,0001246001c,0000002.704s, 028.0C,00002191
2016-07-05 02:33:32 r, 20.88m,0000000000Hz,0001219758c,0000002.647s, 027.7C,00002191
2016-07-05 02:43:31 r, 20.85m,0000000000Hz,0001193032c,0000002.589s, 027.3C,00002191
2016-07-05 02:53:32 r, 20.82m,0000000000Hz,0001156101c,0000002.509s, 027.0C,00002191
2016-07-05 03:03:31 r, 20.75m,0000000000Hz,0001083041c,0000002.350s, 026.7C,00002191
2016-07-05 03:13:31 r, 20.63m,0000000001Hz,0000962920c,0000002.090s, 026.7C,00002191
2016-07-05 03:23:31 r, 20.40m,0000000001Hz,0000785433c,0000001.704s, 026.4C,00002191
2016-07-05 03:33:31 r, 19.94m,0000000001Hz,0000514311c,0000001.116s, 026.4C,00002191
2016-07-05 03:43:31 r, 19.52m,0000000001Hz,0000351371c,0000000.763s, 026.4C,00002191
2016-07-05 03:53:32 r, 18.90m,0000000002Hz,0000199329c,0000000.433s, 026.4C,00002191
2016-07-05 04:03:31 r, 18.14m,0000000004Hz,0000098690c,0000000.214s, 026.1C,00002191
2016-07-05 04:13:33 r, 17.28m,0000000011Hz,0000044676c,0000000.097s, 026.1C,00002191
2016-07-05 04:23:31 r, 16.26m,0000000026Hz,0000017643c,0000000.038s, 025.7C,00002191
2016-07-05 04:33:31 r, 14.94m,0000000087Hz,0000005214c,0000000.011s, 025.7C,00002191
2016-07-05 04:43:33 r, 13.49m,0000000338Hz,0000000000c,0000000.000s, 025.7C,00002191
2016-07-05 04:53:32 r, 12.01m,0000001333Hz,0000000000c,0000000.000s, 026.1C,00002191
2016-07-05 05:03:32 r, 10.46m,0000005506Hz,0000000000c,0000000.000s, 026.1C,00002191
2016-07-05 05:13:32 r, 09.07m,0000020003Hz,0000000000c,0000000.000s, 026.1C,00002191
2016-07-05 05:23:32 r, 07.96m,0000055080Hz,0000000000c,0000000.000s, 026.1C,00002191
2016-07-05 05:33:33 r, 07.07m,0000125353Hz,0000000000c,0000000.000s, 026.1C,00002191
2016-07-05 05:43:33 r, 06.58m,0000196861Hz,0000000000c,0000000.000s, 026.1C,00002191
2016-07-05 05:53:32 r, 06.32m,0000250328Hz,0000000000c,0000000.000s, 026.1C,00002191
2016-07-05 06:03:31 r, 00.00m,0000579224Hz,0000000000c,0000000.000s, 026.4C,00002191
2016-07-05 06:13:31 r, 00.00m,0000595679Hz,0000000000c,0000000.000s, 026.4C,00002191
2016-07-05 06:23:32 r, 00.00m,0000595679Hz,0000000000c,0000000.000s, 026.7C,00002191
2016-07-05 06:33:31 r, 00.00m,0000595599Hz,0000000000c,0000000.000s, 028.0C,00002191
2016-07-05 06:43:31 r, 00.00m,0000595527Hz,0000000000c,0000000.000s, 028.6C,00002191
2016-07-05 06:53:31 r, 00.00m,0000595501Hz,0000000000c,0000000.000s, 029.3C,00002191
2016-07-05 07:03:31 r, 00.00m,0000595386Hz,0000000000c,0000000.000s, 029.3C,00002191
2016-07-05 07:13:32 r, 00.00m,0000595301Hz,0000000000c,0000000.000s, 029.6C,00002191
2016-07-05 07:23:32 r, 00.00m,0000595290Hz,0000000000c,0000000.000s, 030.6C,00002191
2016-07-05 07:33:32 r, 00.00m,0000595212Hz,0000000000c,0000000.000s, 031.5C,00002191
2016-07-05 07:43:32 r, 00.00m,0000595131Hz,0000000000c,0000000.000s, 033.1C,00002191
2016-07-05 07:53:32 r, 00.00m,0000594914Hz,0000000000c,0000000.000s, 034.4C,00002191
2016-07-05 08:03:31 r, 00.00m,0000594907Hz,0000000000c,0000000.000s, 034.8C,00002191
2016-07-05 08:13:31 r, 00.00m,0000594869Hz,0000000000c,0000000.000s, 034.8C,00002191
2016-07-05 08:23:32 r, 00.00m,0000594667Hz,0000000000c,0000000.000s, 035.7C,00002191
2016-07-05 08:33:32 r, 00.00m,0000594444Hz,0000000000c,0000000.000s, 037.7C,00002191
2016-07-05 08:43:32 r, 00.00m,0000594310Hz,0000000000c,0000000.000s, 039.0C,00002191
2016-07-05 08:53:31 r, 00.00m,0000594395Hz,0000000000c,0000000.000s, 038.3C,00002191
2016-07-05 09:03:31 r, 00.00m,0000594405Hz,0000000000c,0000000.000s, 038.6C,00002191
2016-07-05 09:13:32 r, 00.00m,0000594520Hz,0000000000c,0000000.000s, 038.0C,00002191
2016-07-05 09:23:32 r, 00.00m,0000594523Hz,0000000000c,0000000.000s, 037.0C,00002191
2016-07-05 09:33:32 r, 00.00m,0000594559Hz,0000000000c,0000000.000s, 036.4C,00002191
2016-07-05 09:43:31 r, 00.00m,0000594593Hz,0000000000c,0000000.000s, 036.4C,00002191
2016-07-05 09:53:32 r, 00.00m,0000594716Hz,0000000000c,0000000.000s, 035.7C,00002191
2016-07-05 10:03:31 r, 00.00m,0000594756Hz,0000000000c,0000000.000s, 035.4C,00002191
2016-07-05 10:13:32 r, 00.00m,0000594753Hz,0000000000c,0000000.000s, 035.7C,00002191
2016-07-05 10:23:32 r, 00.00m,0000594816Hz,0000000000c,0000000.000s, 035.4C,00002191
2016-07-05 10:33:32 r, 00.00m,0000594797Hz,0000000000c,0000000.000s, 035.1C,00002191
2016-07-05 10:43:31 r, 00.00m,0000594764Hz,0000000000c,0000000.000s, 035.1C,00002191
2016-07-05 10:53:32 r, 00.00m,0000594834Hz,0000000000c,0000000.000s, 035.1C,00002191
2016-07-05 11:03:31 r, 00.00m,0000594877Hz,0000000000c,0000000.000s, 034.4C,00002191
2016-07-05 11:13:32 r, 00.00m,0000594980Hz,0000000000c,0000000.000s, 033.8C,00002191
2016-07-05 11:23:32 r, 00.00m,0000594994Hz,0000000000c,0000000.000s, 033.1C,00002191
2016-07-05 11:33:32 r, 00.00m,0000595101Hz,0000000000c,0000000.000s, 032.8C,00002191
2016-07-05 11:43:33 r, 00.00m,0000595126Hz,0000000000c,0000000.000s, 032.5C,00002191
2016-07-05 11:53:32 r, 00.00m,0000595057Hz,0000000000c,0000000.000s, 032.2C,00002191
2016-07-05 12:03:32 r, 00.00m,0000595070Hz,0000000000c,0000000.000s, 032.5C,00002191
2016-07-05 12:13:32 r, 00.00m,0000595063Hz,0000000000c,0000000.000s, 032.8C,00002191
2016-07-05 12:23:32 r, 00.00m,0000595089Hz,0000000000c,0000000.000s, 033.5C,00002191
2016-07-05 12:33:32 r, 00.00m,0000594653Hz,0000000000c,0000000.000s, 035.1C,00002191
2016-07-05 12:43:32 r, 00.00m,0000594196Hz,0000000000c,0000000.000s, 038.0C,00002191
2016-07-05 12:53:32 r, 00.00m,0000594071Hz,0000000000c,0000000.000s, 039.6C,00002191
2016-07-05 13:03:32 r, 00.00m,0000593853Hz,0000000000c,0000000.000s, 040.2C,00002191
2016-07-05 13:13:32 r, 00.00m,0000593706Hz,0000000000c,0000000.000s, 042.5C,00002191
2016-07-05 13:23:32 r, 00.00m,0000593707Hz,0000000000c,0000000.000s, 041.9C,00002191
2016-07-05 13:33:32 r, 00.00m,0000593698Hz,0000000000c,0000000.000s, 041.5C,00002191
2016-07-05 13:43:34 r, 00.00m,0000593421Hz,0000000000c,0000000.000s, 043.1C,00002191
2016-07-05 13:53:32 r, 00.00m,0000593495Hz,0000000000c,0000000.000s, 042.8C,00002191
2016-07-05 14:03:32 r, 00.00m,0000593648Hz,0000000000c,0000000.000s, 041.9C,00002191
2016-07-05 14:13:33 r, 00.00m,0000593632Hz,0000000000c,0000000.000s, 041.9C,00002191
2016-07-05 14:23:32 r, 00.00m,0000593728Hz,0000000000c,0000000.000s, 041.9C,00002191
2016-07-05 14:33:32 r, 00.00m,0000593633Hz,0000000000c,0000000.000s, 041.9C,00002191
2016-07-05 14:43:32 r, 00.00m,0000593573Hz,0000000000c,0000000.000s, 042.5C,00002191
2016-07-05 14:53:32 r, 00.00m,0000593521Hz,0000000000c,0000000.000s, 043.5C,00002191
2016-07-05 15:03:32 r, 00.00m,0000592770Hz,0000000000c,0000000.000s, 047.0C,00002191
2016-07-05 15:13:32 r, 00.00m,0000592578Hz,0000000000c,0000000.000s, 049.3C,00002191
2016-07-05 15:23:32 r, 00.00m,0000592403Hz,0000000000c,0000000.000s, 050.6C,00002191
2016-07-05 15:33:32 r, 00.00m,0000592419Hz,0000000000c,0000000.000s, 050.6C,00002191
2016-07-05 15:43:32 r, 00.00m,0000592425Hz,0000000000c,0000000.000s, 050.9C,00002191
2016-07-05 15:53:32 r, 00.00m,0000592387Hz,0000000000c,0000000.000s, 051.2C,00002191
2016-07-05 16:03:32 r, 00.00m,0000592459Hz,0000000000c,0000000.000s, 050.9C,00002191
2016-07-05 16:13:32 r, 00.00m,0000592456Hz,0000000000c,0000000.000s, 050.6C,00002191
2016-07-05 16:23:32 r, 00.00m,0000592419Hz,0000000000c,0000000.000s, 050.9C,00002191
2016-07-05 16:33:32 r, 00.00m,0000592415Hz,0000000000c,0000000.000s, 050.6C,00002191
2016-07-05 16:43:32 r, 00.00m,0000592481Hz,0000000000c,0000000.000s, 050.6C,00002191
2016-07-05 16:53:32 r, 00.00m,0000592501Hz,0000000000c,0000000.000s, 050.2C,00002191
2016-07-05 17:03:32 r, 00.00m,0000592633Hz,0000000000c,0000000.000s, 049.9C,00002191
2016-07-05 17:13:32 r, 00.00m,0000592706Hz,0000000000c,0000000.000s, 049.3C,00002191
2016-07-05 17:23:32 r, 00.00m,0000593045Hz,0000000000c,0000000.000s, 047.0C,00002191
2016-07-05 17:33:32 r, 00.00m,0000593076Hz,0000000000c,0000000.000s, 046.7C,00002191
2016-07-05 17:43:32 r, 00.00m,0000593356Hz,0000000000c,0000000.000s, 045.1C,00002191
2016-07-05 17:53:32 r, 00.00m,0000593403Hz,0000000000c,0000000.000s, 043.8C,00002191
2016-07-05 18:03:32 r, 00.00m,0000593368Hz,0000000000c,0000000.000s, 044.8C,00002191
2016-07-05 18:13:32 r, 00.00m,0000593843Hz,0000000000c,0000000.000s, 042.2C,00002191
2016-07-05 18:23:32 r, 00.00m,0000594117Hz,0000000000c,0000000.000s, 039.9C,00002191
2016-07-05 18:33:32 r, 00.00m,0000594342Hz,0000000000c,0000000.000s, 038.6C,00002191
2016-07-05 18:43:32 r, 00.00m,0000594383Hz,0000000000c,0000000.000s, 037.3C,00002191
2016-07-05 18:53:32 r, 06.81m,0000158946Hz,0000000000c,0000000.000s, 036.4C,00002191
2016-07-05 19:03:32 r, 05.99m,0000341436Hz,0000000000c,0000000.000s, 035.1C,00002191
2016-07-05 19:13:32 r, 00.00m,0000594997Hz,0000000000c,0000000.000s, 032.2C,00002191
2016-07-05 19:23:32 r, 00.00m,0000595183Hz,0000000000c,0000000.000s, 030.2C,00002191
2016-07-05 19:33:34 r, 00.00m,0000595153Hz,0000000000c,0000000.000s, 030.2C,00002191
2016-07-05 19:43:32 r, 00.00m,0000595065Hz,0000000000c,0000000.000s, 030.9C,00002191
2016-07-05 19:53:32 r, 00.00m,0000594907Hz,0000000000c,0000000.000s, 032.2C,00002191
2016-07-05 20:03:32 r, 00.00m,0000594945Hz,0000000000c,0000000.000s, 033.5C,00002191
2016-07-05 20:13:32 r, 00.00m,0000594905Hz,0000000000c,0000000.000s, 034.4C,00002191
2016-07-05 20:23:34 r, 00.00m,0000594782Hz,0000000000c,0000000.000s, 034.4C,00002191
2016-07-05 20:33:32 r, 00.00m,0000594786Hz,0000000000c,0000000.000s, 034.1C,00002191
2016-07-05 20:43:32 r, 00.00m,0000594890Hz,0000000000c,0000000.000s, 034.1C,00002191
2016-07-05 20:53:32 r, 00.00m,0000594881Hz,0000000000c,0000000.000s, 033.8C,00002191
2016-07-05 21:03:32 r, 05.99m,0000339050Hz,0000000000c,0000000.000s, 033.1C,00002191
2016-07-05 21:13:32 r, 06.34m,0000246110Hz,0000000000c,0000000.000s, 031.9C,00002191
2016-07-05 21:23:32 r, 06.83m,0000157416Hz,0000000000c,0000000.000s, 030.6C,00002191
2016-07-05 21:33:32 r, 07.42m,0000090661Hz,0000000000c,0000000.000s, 029.9C,00002191
2016-07-05 21:43:32 r, 08.28m,0000041329Hz,0000000000c,0000000.000s, 029.3C,00002191
2016-07-05 21:53:32 r, 09.40m,0000014644Hz,0000000000c,0000000.000s, 028.6C,00002191
2016-07-05 22:03:32 r, 10.78m,0000004156Hz,0000000000c,0000000.000s, 028.0C,00002191
2016-07-05 22:13:32 r, 12.22m,0000001089Hz,0000000000c,0000000.000s, 027.7C,00002191
2016-07-05 22:23:32 r, 13.76m,0000000267Hz,0000000000c,0000000.000s, 027.3C,00002191
2016-07-05 22:33:32 r, 15.25m,0000000066Hz,0000006927c,0000000.015s, 027.0C,00002191
2016-07-05 22:43:32 r, 16.47m,0000000021Hz,0000021323c,0000000.046s, 027.0C,00002191
2016-07-05 22:53:32 r, 17.44m,0000000009Hz,0000051891c,0000000.113s, 027.0C,00002191
2016-07-05 23:03:32 r, 18.29m,0000000004Hz,0000113313c,0000000.246s, 026.7C,00002191
2016-07-05 23:13:33 r, 19.04m,0000000002Hz,0000225598c,0000000.490s, 026.7C,00002191
2016-07-05 23:23:32 r, 19.68m,0000000001Hz,0000406690c,0000000.883s, 026.7C,00002191
2016-07-05 23:33:32 r, 20.17m,0000000001Hz,0000640017c,0000001.389s, 026.4C,00002191
2016-07-05 23:43:32 r, 20.54m,0000000001Hz,0000886655c,0000001.924s, 026.4C,00002191
2016-07-05 23:53:32 r, 20.74m,0000000000Hz,0001071106c,0000002.324s, 026.4C,00002191
